2020-085R

Last updated on Thu Dec 03 2020 00:02:04 GMT+0000 (Coordinated Universal Time)

1 46944U 20085R 20337.63054513 .00009679 00000-0 44510-3 0 9992 2 46944 97.3683 111.9918 0013884 267.0652 92.8995 15.20467301 1908

Satellite not in orbit

2020-085R